{"data":{"norad_id":52379,"intl_designator":"2022-045BA","name":"STARLINK-3800","alt_names":[],"object_type":"PAYLOAD","status":"ACTIVE","operator":null,"country":"US","launch_date":"2022-04-29","launch_site_code":"AFETR","launch_vehicle":null,"mission":null,"orbit_class":"UNKNOWN","rcs_meters":null,"size_class":null,"mass_kg":null,"dimensions":null,"purposes":["comms"],"wikipedia_slug":null,"has_3d_model":false,"image_url":null,"decayed_at":null,"tle_current":{"epoch":"2026-05-25T04:22:39.722880Z","epoch_age_seconds":55364,"freshness":"FRESH","line1":"1 52379U 22045BA  26145.18240420 -.00000022  00000+0  16719-4 0  9990","line2":"2 52379  53.2123 205.7326 0001108  83.1237 276.9881 15.08840927227470","mean_motion":15.08840927,"eccentricity":0.0001108,"inclination_deg":53.2123,"raan_deg":205.7326,"arg_perigee_deg":83.1237,"mean_anomaly_deg":276.9881,"bstar":1.6719e-5,"rev_number":22747,"period_min":95.437496042948,"perigee_km":538.97405466426,"apogee_km":540.50705633056,"semimajor_km":6917.8775554974,"source":"CELESTRAK","updated_at":"2026-05-25T13:38:17.122609Z"}}}